Location: Dover
(48.8500°N, 53.9833°W)
Time: 17:41:31
(UTC+00:00)

RESURS DK-1 - Pass Details

Date: 14 November 2025
Orbit: 524 x 535 km, 69.9° (Epoch: 10 December)

Event Time Altitude Azimuth Distance (km) Brightness Sun altitude
Rises 20:45:44 0° 337° (NNW) 2,698 5.9 -8.3°
Reaches altitude 10° 20:48:14 10° 351° (N) 1,803 4.9 -8.7°
Maximum altitude 20:51:35 25° 48° (NE) 1,117 3.4 -9.2°
Drops below altitude 10° 20:54:55 10° 104° (ESE) 1,794 4.4 -9.7°
Enters shadow 20:55:14 - 107° (ESE) 1,898 4.6 -9.8°
